Location: Newark
(46.7000°N, 60.6000°W)
Time: 13:32:55
(UTC+00:00)

A-11 Canister half - Pass Details

Date: 29 October 2020
Orbit: 1525 x 1684 km, 47.3° (Epoch: 01 December)

Event Time Altitude Azimuth Distance (km) Brightness Sun altitude
Rises 00:23:42 0° 291° (WNW) 4,697 12.5 -36.4°
Reaches altitude 10° 00:26:52 10° 286° (WNW) 3,703 11.7 -36.9°
Maximum altitude 00:35:37 48° 216° (SW) 1,912 9.4 -38.3°
Enters shadow 00:35:44 48° 214° (SW) 1,913 9.4 -38.3°
Drops below altitude 10° 00:44:24 10° 146° (SE) 3,705 - -39.7°
Sets 00:47:35 0° 141° (SE) 4,699 - -40.2°
